TimeCDT,TemperatureF,Dew PointF,Humidity,Sea Level PressureIn,VisibilityMPH,Wind Direction,Wind SpeedMPH,Gust SpeedMPH,PrecipitationIn,Events,Conditions,WindDirDegrees,DateUTC
12:53 AM,51.1,24.1,35,29.62,10.0,West,11.5,-,N/A,,Clear,280,2012-10-18 05:53:00
1:53 AM,51.1,24.1,35,29.62,10.0,West,12.7,20.7,N/A,,Clear,280,2012-10-18 06:53:00
2:53 AM,50.0,25.0,38,29.63,10.0,West,13.8,-,N/A,,Clear,270,2012-10-18 07:53:00
3:53 AM,48.9,26.1,41,29.62,10.0,West,12.7,23.0,N/A,,Clear,270,2012-10-18 08:53:00
4:53 AM,48.0,26.1,42,29.62,10.0,West,13.8,-,N/A,,Clear,270,2012-10-18 09:53:00
5:53 AM,48.0,25.0,41,29.62,10.0,West,16.1,24.2,N/A,,Clear,270,2012-10-18 10:53:00
6:53 AM,48.0,25.0,41,29.62,10.0,West,16.1,-,N/A,,Clear,260,2012-10-18 11:53:00
7:53 AM,48.0,25.0,41,29.61,10.0,WSW,16.1,27.6,N/A,,Mostly Cloudy,250,2012-10-18 12:53:00
8:53 AM,50.0,24.1,36,29.60,10.0,West,18.4,27.6,N/A,,Partly Cloudy,260,2012-10-18 13:53:00
9:53 AM,54.0,24.1,31,29.60,10.0,West,25.3,33.4,N/A,,Clear,270,2012-10-18 14:53:00
10:53 AM,54.0,24.1,31,29.59,10.0,West,27.6,38.0,N/A,,Overcast,280,2012-10-18 15:53:00
11:53 AM,55.0,25.0,31,29.59,10.0,West,28.8,41.4,N/A,,Overcast,280,2012-10-18 16:53:00
12:53 PM,54.0,25.0,33,29.60,10.0,West,25.3,34.5,N/A,,Overcast,280,2012-10-18 17:53:00
1:53 PM,54.0,27.0,35,29.60,10.0,WNW,21.9,38.0,N/A,,Overcast,290,2012-10-18 18:53:00
2:53 PM,52.0,32.0,47,29.61,10.0,West,25.3,41.4,0.00,Rain,Light Rain,280,2012-10-18 19:53:00
3:53 PM,48.9,37.0,64,29.63,10.0,West,16.1,25.3,0.00,Rain,Light Rain,280,2012-10-18 20:53:00
4:53 PM,51.1,34.0,52,29.62,10.0,West,19.6,32.2,0.00,,Overcast,280,2012-10-18 21:53:00
5:53 PM,51.1,36.0,56,29.62,10.0,WNW,25.3,32.2,0.00,,Overcast,290,2012-10-18 22:53:00
6:53 PM,48.0,39.0,71,29.62,10.0,West,16.1,26.5,0.00,Rain,Light Rain,280,2012-10-18 23:53:00
7:53 PM,48.0,39.0,71,29.65,10.0,WNW,23.0,27.6,0.00,Rain,Light Rain,300,2012-10-19 00:53:00
8:53 PM,48.0,39.9,74,29.65,10.0,WNW,25.3,32.2,0.00,Rain,Light Rain,300,2012-10-19 01:53:00
9:53 PM,46.9,39.9,77,29.66,10.0,WNW,16.1,29.9,0.00,Rain,Light Rain,290,2012-10-19 02:53:00
10:53 PM,46.9,39.9,77,29.65,10.0,WNW,19.6,28.8,0.00,Rain,Light Rain,300,2012-10-19 03:53:00
11:29 PM,46.4,39.2,76,29.65,10.0,WNW,18.4,27.6,0.01,Rain,Light Rain,290,2012-10-19 04:29:00
11:53 PM,46.0,41.0,83,29.65,10.0,WNW,17.3,26.5,0.01,Rain,Light Rain,290,2012-10-19 04:53:00